Flag for Germany Weather past 2 weeks in Westerstede, Lower Saxony, Germany

Now
48 °F

Passing clouds.


Feels Like: 40 °F
Forecast: 49 / 51 °F
Wind: 25 mph from Southwest

Location: Wittmundhaven

Current Time: Dec 22, 2014 at 1:54:01 AM

Latest Report: Dec 22, 2014 at 1:20 AM


Visibility: N/A

Pressure: 29.86 "Hg

Humidity: 87%

Dew point: 45 °F

Location of WesterstedeLocation

Historic Weather in Westerstede — Graph

°F

Westerstede temperature yesterday

Maximum temperature yesterday: 48 °F (at 10:20 PM)
Minimum temperature yesterday: 41 °F (at 6:20 AM)
Average temperature yesterday: 44 °F

Past Weeks' High & Low Weather Summary

 TemperatureHumidityPressure
High54 °F (Dec 18, 6:20 PM)100% (Dec 7, 1:20 AM)30.30 "Hg (Dec 7, 1:20 AM)
Low30 °F (Dec 7, 1:20 AM)71% (Dec 10, 2:20 PM)29.15 "Hg (Dec 12, 11:20 AM)
Average40 °F89%29.79 "Hg
* Reported Dec 7 12:20 AM — Dec 22 12:20 AM, Westerstede, Weather by CustomWeather, © 2014

Note: Actual official high and low records may vary slightly from our data, if they occured in-between our weather recording intervals... More about our weather records

Advertising

Westerstede weather history for previous 24 hours

 ConditionsComfort  
Time TempWeatherWind HumidityBarometerVisibility
12:20 AM
Dec 22
48 °FPassing clouds.25 mph87%29.89 "Hg3 mi
11:20 PM
Dec 21
48 °FPassing clouds.28 mph82%29.89 "HgN/A
10:20 PM48 °FPassing clouds.29 mph82%29.92 "HgN/A
9:20 PM46 °FPassing clouds.25 mph87%29.95 "HgN/A
8:20 PM46 °FPassing clouds.22 mph87%29.98 "HgN/A
7:20 PM46 °FPassing clouds.23 mph87%29.98 "HgN/A
6:20 PM45 °FDrizzle. Fog.18 mph93%30.01 "Hg3 mi
5:20 PM46 °FPassing clouds.18 mph87%30.04 "HgN/A
4:20 PM45 °FPassing clouds.18 mph93%30.07 "HgN/A
3:20 PM45 °FPartly sunny.18 mph87%30.07 "HgN/A
2:20 PM45 °FLight rain. Partly sunny.16 mph87%30.09 "HgN/A
1:20 PM45 °FLight rain. Partly sunny.17 mph87%30.12 "HgN/A
12:20 PM45 °FLight rain. Partly sunny.17 mph87%30.15 "Hg5 mi
11:20 AM43 °FPartly sunny.16 mph93%30.18 "HgN/A
10:20 AM43 °FBroken clouds.13 mph87%30.18 "HgN/A
9:20 AM41 °FBroken clouds.14 mph87%30.21 "HgN/A
8:20 AM41 °FPartly cloudy.14 mph87%30.21 "HgN/A
7:20 AM41 °FPassing clouds.10 mph87%30.21 "HgN/A
6:20 AM41 °FPassing clouds.10 mph87%30.21 "HgN/A
5:20 AM43 °FPassing clouds.10 mph81%30.21 "HgN/A
4:20 AM43 °FPassing clouds.10 mph76%30.21 "HgN/A
3:20 AM43 °FPassing clouds.12 mph81%30.21 "HgN/A
2:20 AM43 °FPassing clouds.13 mph81%30.18 "HgN/A
1:20 AM45 °FPassing clouds.14 mph76%30.15 "HgN/A
Weather by CustomWeather, © 2014

See weather overviewHow to use our weather pages